{"data":{"norad_id":65664,"intl_designator":"2025-211N","name":"STARLINK-35201","alt_names":[],"object_type":"PAYLOAD","status":"ACTIVE","operator":null,"country":"US","launch_date":"2025-09-19","launch_site_code":"AFWTR","launch_vehicle":null,"mission":null,"orbit_class":"UNKNOWN","rcs_meters":null,"size_class":null,"mass_kg":null,"dimensions":null,"purposes":["comms"],"wikipedia_slug":null,"has_3d_model":false,"image_url":null,"decayed_at":null,"tle_current":{"epoch":"2026-05-25T02:51:13.707360Z","epoch_age_seconds":67881,"freshness":"FRESH","line1":"1 65664U 25211N   26145.11890865  .00003304  00000+0  23287-3 0  9998","line2":"2 65664  97.4480 189.0569 0002215 125.0445 235.0990 15.05657418 38540","mean_motion":15.05657418,"eccentricity":0.0002215,"inclination_deg":97.448,"raan_deg":189.0569,"arg_perigee_deg":125.0445,"mean_anomaly_deg":235.099,"bstar":0.00023287,"rev_number":3854,"period_min":95.639285722298,"perigee_km":547.95393112683,"apogee_km":551.0228691791,"semimajor_km":6927.625400153,"source":"CELESTRAK","updated_at":"2026-05-25T13:38:20.890388Z"}}}